TimeEST,TemperatureF,Dew PointF,Humidity,Sea Level PressureIn,VisibilityMPH,Wind Direction,Wind SpeedMPH,Gust SpeedMPH,PrecipitationIn,Events,Conditions,WindDirDegrees,DateUTC
12:53 AM,57.9,57.0,97,30.02,0.2,West,3.5,-,N/A,Fog,Fog,260,2012-12-10 05:53:00
1:53 AM,57.9,57.0,97,30.00,0.2,Calm,Calm,-,N/A,Fog,Fog,0,2012-12-10 06:53:00
2:53 AM,57.9,57.9,100,29.99,0.2,Calm,Calm,-,N/A,Fog,Fog,0,2012-12-10 07:53:00
3:53 AM,55.0,54.0,96,29.98,0.2,Calm,Calm,-,N/A,Fog,Fog,0,2012-12-10 08:53:00
4:53 AM,53.1,53.1,100,29.98,0.2,Calm,Calm,-,N/A,Fog,Fog,0,2012-12-10 09:53:00
5:53 AM,53.1,52.0,96,29.99,1.0,Calm,Calm,-,N/A,,Mist,0,2012-12-10 10:53:00
5:58 AM,53.6,53.6,100,29.98,3.0,Calm,Calm,-,N/A,,Mostly Cloudy,0,2012-12-10 10:58:00
6:06 AM,53.6,51.8,94,29.98,2.5,Calm,Calm,-,N/A,,Scattered Clouds,0,2012-12-10 11:06:00
6:22 AM,51.8,51.8,100,29.98,1.0,Calm,Calm,-,N/A,,Mist,0,2012-12-10 11:22:00
6:29 AM,51.8,51.8,100,29.98,0.5,Calm,Calm,-,N/A,Fog,Fog,0,2012-12-10 11:29:00
6:53 AM,51.1,51.1,100,29.98,0.2,Calm,Calm,-,N/A,Fog,Fog,0,2012-12-10 11:53:00
7:16 AM,51.8,51.8,100,29.98,0.8,Calm,Calm,-,N/A,,Mist,0,2012-12-10 12:16:00
7:31 AM,50.0,48.2,94,29.98,0.2,Calm,Calm,-,N/A,Fog,Fog,0,2012-12-10 12:31:00
7:53 AM,52.0,52.0,100,29.98,1.8,Calm,Calm,-,N/A,,Overcast,0,2012-12-10 12:53:00
7:56 AM,53.6,51.8,94,29.98,4.0,Calm,Calm,-,N/A,,Mostly Cloudy,0,2012-12-10 12:56:00
8:10 AM,55.4,53.6,94,29.98,10.0,Calm,Calm,-,N/A,,Scattered Clouds,0,2012-12-10 13:10:00
8:53 AM,59.0,57.9,96,29.98,10.0,Calm,Calm,-,N/A,,Clear,0,2012-12-10 13:53:00
9:53 AM,68.0,60.1,76,29.98,10.0,South,4.6,-,N/A,,Clear,170,2012-12-10 14:53:00
10:53 AM,75.0,64.0,69,29.96,10.0,South,6.9,-,N/A,,Clear,180,2012-12-10 15:53:00
11:53 AM,80.1,63.0,56,29.93,10.0,South,10.4,-,N/A,,Clear,180,2012-12-10 16:53:00
12:53 PM,79.0,63.0,58,29.91,10.0,SSW,12.7,-,N/A,,Overcast,210,2012-12-10 17:53:00
1:53 PM,78.1,64.9,64,29.87,10.0,SSW,8.1,-,N/A,,Overcast,200,2012-12-10 18:53:00
2:38 PM,75.2,66.2,73,29.86,10.0,South,6.9,-,0.00,,Overcast,190,2012-12-10 19:38:00
2:53 PM,73.0,66.9,81,29.88,3.0,WNW,15.0,20.7,0.00,Rain,Rain,290,2012-12-10 19:53:00
2:55 PM,71.6,66.2,83,29.88,1.5,West,10.4,20.7,0.01,Rain,Heavy Rain,280,2012-12-10 19:55:00
3:02 PM,68.0,64.4,88,29.87,0.2,WSW,9.2,26.5,0.28,Fog-Rain,Heavy Rain,250,2012-12-10 20:02:00
3:04 PM,68.0,64.4,88,29.87,0.2,SSW,4.6,26.5,0.44,Fog-Rain,Heavy Rain,210,2012-12-10 20:04:00
3:10 PM,66.2,64.4,94,29.87,0.5,Variable,3.5,-,0.60,Fog-Rain-Thunderstorm,Heavy Thunderstorms and Rain,0,2012-12-10 20:10:00
3:17 PM,66.2,64.4,94,29.86,1.0,Variable,3.5,-,0.65,Rain-Thunderstorm,Heavy Thunderstorms and Rain,0,2012-12-10 20:17:00
3:24 PM,66.2,64.4,94,29.86,0.8,West,12.7,19.6,0.74,Rain-Thunderstorm,Heavy Thunderstorms and Rain,280,2012-12-10 20:24:00
3:36 PM,68.0,66.2,94,29.85,0.5,West,11.5,17.3,1.06,Fog-Rain-Thunderstorm,Heavy Thunderstorms and Rain,260,2012-12-10 20:36:00
3:43 PM,68.0,66.2,94,29.85,0.5,WSW,6.9,-,1.27,Fog-Rain-Thunderstorm,Heavy Thunderstorms and Rain,240,2012-12-10 20:43:00
3:53 PM,68.0,66.0,93,29.83,1.5,WNW,6.9,-,1.35,Rain-Thunderstorm,Light Thunderstorms and Rain,290,2012-12-10 20:53:00
3:56 PM,68.0,66.2,94,29.83,3.0,West,5.8,-,0.00,Rain,Light Rain,280,2012-12-10 20:56:00
4:07 PM,68.0,66.2,94,29.85,1.5,West,6.9,-,0.01,Rain,Rain,270,2012-12-10 21:07:00
4:13 PM,68.0,66.2,94,29.84,0.5,WSW,5.8,-,0.17,Fog-Rain-Thunderstorm,Heavy Thunderstorms and Rain,250,2012-12-10 21:13:00
4:21 PM,69.8,66.2,88,29.84,0.8,West,8.1,-,0.27,Rain-Thunderstorm,Heavy Thunderstorms and Rain,260,2012-12-10 21:21:00
4:30 PM,69.8,66.2,88,29.85,0.8,South,5.8,-,0.43,Rain-Thunderstorm,Heavy Thunderstorms and Rain,190,2012-12-10 21:30:00
4:37 PM,69.8,68.0,94,29.85,1.0,SSW,3.5,-,0.49,Rain-Thunderstorm,Heavy Thunderstorms and Rain,200,2012-12-10 21:37:00
4:39 PM,69.8,68.0,94,29.85,0.8,South,4.6,-,0.53,Rain-Thunderstorm,Heavy Thunderstorms and Rain,190,2012-12-10 21:39:00
4:44 PM,69.8,68.0,94,29.85,0.5,Calm,Calm,-,0.63,Fog-Rain-Thunderstorm,Heavy Thunderstorms and Rain,0,2012-12-10 21:44:00
4:48 PM,69.8,68.0,94,29.85,1.0,Calm,Calm,-,0.66,Rain-Thunderstorm,Heavy Thunderstorms and Rain,0,2012-12-10 21:48:00
4:53 PM,69.1,66.9,93,29.85,0.8,West,3.5,-,0.67,Rain-Thunderstorm,Thunderstorms and Rain,260,2012-12-10 21:53:00
4:57 PM,69.8,66.2,88,29.85,0.2,WSW,6.9,-,0.16,Fog-Rain-Thunderstorm,Heavy Thunderstorms and Rain,250,2012-12-10 21:57:00
5:12 PM,71.6,69.8,94,29.84,0.5,West,10.4,-,0.64,Fog-Rain-Thunderstorm,Heavy Thunderstorms and Rain,270,2012-12-10 22:12:00
5:26 PM,71.6,69.8,94,29.84,2.0,WSW,10.4,-,0.84,Rain-Thunderstorm,Thunderstorms and Rain,250,2012-12-10 22:26:00
5:38 PM,71.6,69.8,94,29.85,1.0,West,15.0,20.7,1.06,Rain-Thunderstorm,Heavy Thunderstorms and Rain,260,2012-12-10 22:38:00
5:51 PM,71.6,69.8,94,29.85,3.0,WSW,13.8,-,1.28,Rain,Light Rain,240,2012-12-10 22:51:00
5:53 PM,71.1,69.1,93,29.85,7.0,WSW,11.5,20.7,1.28,Rain,Light Rain,240,2012-12-10 22:53:00
6:04 PM,71.6,69.8,94,29.86,2.5,WSW,12.7,-,0.06,Rain,Heavy Rain,240,2012-12-10 23:04:00
6:15 PM,71.6,69.8,94,29.85,3.0,SW,9.2,19.6,0.20,Rain,Rain,230,2012-12-10 23:15:00
6:53 PM,71.1,68.0,90,29.87,10.0,West,11.5,-,0.21,,Overcast,260,2012-12-10 23:53:00
7:53 PM,69.1,64.9,87,29.88,10.0,SW,6.9,-,0.05,,Overcast,230,2012-12-11 00:53:00
8:53 PM,69.1,66.0,90,29.88,10.0,SW,4.6,-,N/A,,Scattered Clouds,220,2012-12-11 01:53:00
9:17 PM,69.8,66.2,88,29.89,10.0,SSW,8.1,-,N/A,,Mostly Cloudy,210,2012-12-11 02:17:00
9:25 PM,69.8,68.0,94,29.89,10.0,SSW,9.2,-,N/A,,Mostly Cloudy,210,2012-12-11 02:25:00
9:53 PM,71.1,69.1,93,29.89,10.0,SW,11.5,-,N/A,,Overcast,220,2012-12-11 02:53:00
10:53 PM,70.0,68.0,93,29.88,10.0,SSW,4.6,-,N/A,,Scattered Clouds,210,2012-12-11 03:53:00
11:53 PM,69.1,66.9,93,29.87,10.0,SW,5.8,-,N/A,,Clear,230,2012-12-11 04:53:00